"Pseudo-MPEC" for BLT106

Created 2023 Feb 7 14:22:01 UT using Find_Orb

Click here for an explanation of pseudo-MPECs

 
 Astrometry: 
     BLT106 *KC2023 01 16\?\`=QY;PmKQ,;.P=wZ'qI!PxX4n=4:y.P_AstrometryK'rfWe7W24
     BLT106  KC2023 01 16bK,p!Im\Q?+RI)redacted;d]x[ql4%CM*$Ep61ax\mI^clickqpW24
     BLT106  KC2023 01 16tHhere5%T8cruaSG-forgPn1explanationU9[EJwwaDFy;=sc,xW24

Station data:
(W24) Shamrock Banks Observatory, Clare  (N43.830757 W84.761830)  US/Michigan.

Orbital elements:  BLT106
   Perihelion 2023 Jun 3.97167 +/- 85.2 TT = 23:19:12 (JD 2460099.47167)
Epoch 2023 Jan 16.0 TT = JDT 2459960.5   Earth MOID: 0.0069      AutoNEOCP
M 207.88361825 +/- 70               (J2000 ecliptic)
n   1.09458555 +/- 0.396            Peri.  180.15954 +/- 59
a   0.93247294 +/- 0.225            Node    89.02413 +/- 41
e   0.0625096 +/- 0.172             Incl.    2.17191 +/- 41
P   0.90/328.89d           H 23.20  G  0.15   U 12.1  SR
q 0.87418442 +/- 0.248    Q 0.99076146 +/- 0.446
From 3 observations 2023 Jan. 16 (14.4 min); mean residual 1".60
Residuals in arcseconds: 
230116 W24  1.1-  1.1-    230116 W24  2.2+  2.3+    230116 W24  1.1-  1.2-    

Ephemerides (geocentric):
Date (UTC) HH   RA             Dec           delta  r     elong  mag " sig PA
---- --------  ------------   ------------  ------ ------ -----  --- --------
2023 02 07 14  00 02 06.608   +41 19 48.98  .04468 .97010  67.6 20.6  29d 145
2023 02 07 15  00 02 02.928   +41 19 31.57  .04470 .97007  67.6 20.6  29d 145
2023 02 07 16  00 01 59.245   +41 19 14.09  .04473 .97004  67.5 20.6  29d 145
2023 02 07 17  00 01 55.560   +41 18 56.52  .04476 .97000  67.5 20.6  29d 145
2023 02 07 18  00 01 51.873   +41 18 38.87  .04478 .96997  67.5 20.6  30d 145
2023 02 07 19  00 01 48.184   +41 18 21.14  .04481 .96993  67.4 20.6  30d 145
2023 02 07 20  00 01 44.492   +41 18 03.33  .04484 .96990  67.4 20.6  30d 145
2023 02 07 21  00 01 40.798   +41 17 45.43  .04486 .96987  67.3 20.6  30d 145
2023 02 07 22  00 01 37.102   +41 17 27.46  .04489 .96983  67.3 20.6  30d 145
2023 02 07 23  00 01 33.404   +41 17 09.40  .04492 .96980  67.2 20.6  30d 145
2023 02 08 00  00 01 29.704   +41 16 51.26  .04494 .96977  67.2 20.6  30d 145
2023 02 08 01  00 01 26.001   +41 16 33.04  .04497 .96973  67.2 20.6  30d 145
2023 02 08 02  00 01 22.296   +41 16 14.73  .04499 .96970  67.1 20.6  30d 145
2023 02 08 03  00 01 18.589   +41 15 56.34  .04502 .96966  67.1 20.6  30d 145
2023 02 08 04  00 01 14.880   +41 15 37.87  .04505 .96963  67.0 20.7  30d 145
2023 02 08 05  00 01 11.169   +41 15 19.32  .04507 .96959  67.0 20.7  30d 145
2023 02 08 06  00 01 07.456   +41 15 00.69  .04510 .96956  66.9 20.7  30d 145
2023 02 08 07  00 01 03.740   +41 14 41.97  .04513 .96953  66.9 20.7  30d 145
2023 02 08 08  00 01 00.022   +41 14 23.16  .04515 .96949  66.9 20.7  30d 145
2023 02 08 09  00 00 56.302   +41 14 04.28  .04518 .96946  66.8 20.7  30d 145
2023 02 08 10  00 00 52.580   +41 13 45.31  .04520 .96942  66.8 20.7  30d 145
2023 02 08 11  00 00 48.856   +41 13 26.26  .04523 .96939  66.7 20.7  30d 145
2023 02 08 12  00 00 45.130   +41 13 07.12  .04526 .96936  66.7 20.7  30d 145
2023 02 08 13  00 00 41.401   +41 12 47.90  .04528 .96932  66.6 20.7  30d 145
2023 02 08 14  00 00 37.671   +41 12 28.60  .04531 .96929  66.6 20.7  30d 145
2023 02 08 15  00 00 33.938   +41 12 09.21  .04534 .96925  66.6 20.7  30d 145
2023 02 08 16  00 00 30.203   +41 11 49.74  .04536 .96922  66.5 20.7  30d 145
2023 02 08 17  00 00 26.466   +41 11 30.19  .04539 .96918  66.5 20.7  30d 145
2023 02 08 18  00 00 22.727   +41 11 10.55  .04541 .96915  66.4 20.7  30d 145
2023 02 08 19  00 00 18.986   +41 10 50.83  .04544 .96911  66.4 20.7  30d 145
2023 02 08 20  00 00 15.243   +41 10 31.02  .04547 .96908  66.3 20.7  30d 146
2023 02 08 21  00 00 11.498   +41 10 11.13  .04549 .96905  66.3 20.7  30d 146
2023 02 08 22  00 00 07.750   +41 09 51.15  .04552 .96901  66.2 20.7  30d 146
2023 02 08 23  00 00 04.001   +41 09 31.09  .04554 .96898  66.2 20.7  30d 146
2023 02 09 00  00 00 00.249   +41 09 10.94  .04557 .96894  66.2 20.7  30d 146
2023 02 09 01  23 59 56.495   +41 08 50.71  .04560 .96891  66.1 20.7  30d 146
2023 02 09 02  23 59 52.740   +41 08 30.39  .04562 .96887  66.1 20.7  30d 146
2023 02 09 03  23 59 48.982   +41 08 09.99  .04565 .96884  66.0 20.7  30d 146
2023 02 09 04  23 59 45.222   +41 07 49.50  .04567 .96880  66.0 20.7  30d 146
2023 02 09 05  23 59 41.460   +41 07 28.93  .04570 .96877  65.9 20.7  30d 146
2023 02 09 06  23 59 37.696   +41 07 08.27  .04573 .96873  65.9 20.7  30d 146
2023 02 09 07  23 59 33.931   +41 06 47.53  .04575 .96870  65.9 20.8  30d 146
2023 02 09 08  23 59 30.163   +41 06 26.70  .04578 .96867  65.8 20.8  30d 146
2023 02 09 09  23 59 26.393   +41 06 05.78  .04580 .96863  65.8 20.8  30d 146
2023 02 09 10  23 59 22.621   +41 05 44.78  .04583 .96860  65.7 20.8  30d 146
2023 02 09 11  23 59 18.847   +41 05 23.69  .04586 .96856  65.7 20.8  30d 146
2023 02 09 12  23 59 15.071   +41 05 02.52  .04588 .96853  65.6 20.8  30d 146
2023 02 09 13  23 59 11.293   +41 04 41.26  .04591 .96849  65.6 20.8  30d 146